Change the Weather History Date:

Wednesday, March 5, 2014

  Actual Average Record
Temperature  
Mean Temperature 14 °F -  
Max Temperature 26 °F 35 °F 57 °F (1987)
Min Temperature 3 °F 10 °F -22 °F (1985)
Degree Days  
Heating Degree Days 50    
Moisture  
Dew Point 2 °F    
Average Humidity 58    
Maximum Humidity 73    
Minimum Humidity 46    
Precipitation  
Precipitation 0.00 in - - ()
Sea Level Pressure  
Sea Level Pressure 30.39 in    
Wind  
Wind Speed 3 mph (ESE)    
Max Wind Speed 9 mph    
Max Gust Speed -    
Visibility 10 miles    
Events      
Averages and records for this station are not official NWS values.
T = Trace of Precipitation, MM = Missing Value Source: NWS Daily Summary

Daily Weather History Graph

Daily Weather History Graph

Search for Another Location

Airport or City:

Trip Planner

Search our weather history database for the weather conditions in past years. The results will help you decide how hot, cold, wet, or windy it might be!

Date:

Astronomy

Mar. 05, 2014 Rise Set
Actual Time 6:44 AM CST 6:05 PM CST
Civil Twilight 6:14 AM CST 6:35 PM CST
Nautical Twilight 5:40 AM CST 7:09 PM CST
Astronomical Twilight 5:05 AM CST 7:44 PM CST
Moon 8:54 AM CST (3/5) 11:31 PM CST (3/5)
Length of Visible Light 12h 20m
Length of Day
11h 20m
Waxing Crescent, 23% of the Moon is Illuminated
Mar 5
Waxing Crescent
Mar 8
First Quarter
Mar 16
Full
Mar 23
Last Quarter
Mar 30
New

Hourly Weather History & Observations

Time (CST) Temp. Windchill Dew Point Humidity Pressure Visibility Wind Dir Wind Speed Gust Speed Precip Events Conditions
12:11 AM 12.2 °F - 1.4 °F 62% 30.32 in 10.0 mi Calm Calm - N/A   Clear
12:31 AM 10.4 °F - -0.4 °F 62% 30.33 in 10.0 mi Calm Calm - N/A   Clear
12:51 AM 10.4 °F - 1.4 °F 67% 30.34 in 10.0 mi Calm Calm - N/A   Clear
1:11 AM 8.6 °F - 1.4 °F 73% 30.34 in 10.0 mi Calm Calm - N/A   Clear
1:31 AM 10.4 °F - 1.4 °F 67% 30.34 in 10.0 mi Calm Calm - N/A   Clear
1:51 AM 10.4 °F - 1.4 °F 67% 30.34 in 10.0 mi Calm Calm - N/A   Clear
2:11 AM 10.4 °F 4.0 °F -0.4 °F 62% 30.35 in 10.0 mi ENE 3.5 mph - N/A   Clear
2:31 AM 10.4 °F 4.0 °F -0.4 °F 62% 30.35 in 10.0 mi NE 3.5 mph - N/A   Clear
2:51 AM 8.6 °F 2.0 °F -2.2 °F 62% 30.36 in 10.0 mi East 3.5 mph - N/A   Clear
3:11 AM 8.6 °F 2.0 °F -2.2 °F 62% 30.36 in 10.0 mi NE 3.5 mph - N/A   Clear
3:31 AM 6.8 °F -0.1 °F -4.0 °F 61% 30.36 in 10.0 mi ENE 3.5 mph - N/A   Clear
3:51 AM 6.8 °F - -4.0 °F 61% 30.37 in 10.0 mi Calm Calm - N/A   Clear
4:11 AM 6.8 °F -0.1 °F -4.0 °F 61% 30.38 in 10.0 mi ENE 3.5 mph - N/A   Clear
4:31 AM 5.0 °F -2.1 °F -4.0 °F 66% 30.38 in 10.0 mi ENE 3.5 mph - N/A   Clear
4:51 AM 5.0 °F -2.1 °F -4.0 °F 66% 30.39 in 10.0 mi East 3.5 mph - N/A   Clear
5:11 AM 5.0 °F -2.1 °F -4.0 °F 66% 30.39 in 10.0 mi ENE 3.5 mph - N/A   Clear
5:31 AM 5.0 °F -2.1 °F -4.0 °F 66% 30.41 in 10.0 mi ENE 3.5 mph - N/A   Clear
5:51 AM 3.2 °F -6.2 °F -4.0 °F 72% 30.41 in 10.0 mi ENE 4.6 mph - N/A   Clear
6:11 AM 3.2 °F -6.2 °F -4.0 °F 72% 30.41 in 10.0 mi ENE 4.6 mph - N/A   Clear
6:31 AM 3.2 °F -6.2 °F -4.0 °F 72% 30.42 in 10.0 mi ENE 4.6 mph - N/A   Clear
6:51 AM 3.2 °F -7.8 °F -4.0 °F 72% 30.42 in 10.0 mi ENE 5.8 mph - N/A   Clear
7:11 AM 5.0 °F -4.1 °F -2.2 °F 72% 30.42 in 10.0 mi ENE 4.6 mph - N/A   Clear
7:31 AM 5.0 °F -4.1 °F -4.0 °F 66% 30.42 in 10.0 mi East 4.6 mph - N/A   Clear
7:51 AM 6.8 °F -0.1 °F -2.2 °F 67% 30.43 in 10.0 mi ENE 3.5 mph - N/A   Clear
8:11 AM 8.6 °F - -4.0 °F 57% 30.45 in 10.0 mi Calm Calm - N/A   Clear
8:31 AM 10.4 °F 4.0 °F -2.2 °F 57% 30.46 in 10.0 mi East 3.5 mph - N/A   Clear
8:51 AM 12.2 °F 6.1 °F -0.4 °F 57% 30.47 in 10.0 mi East 3.5 mph - N/A   Clear
9:11 AM 12.2 °F 6.1 °F -0.4 °F 57% 30.48 in 10.0 mi East 3.5 mph - N/A   Clear
9:31 AM 14.0 °F 3.9 °F 1.4 °F 57% 30.48 in 10.0 mi East 6.9 mph - N/A   Clear
9:51 AM 14.0 °F 2.0 °F 1.4 °F 57% 30.46 in 10.0 mi ESE 9.2 mph - N/A   Clear
10:11 AM 14.0 °F 2.0 °F 1.4 °F 57% 30.46 in 10.0 mi East 9.2 mph - N/A   Clear
10:31 AM 17.6 °F 6.4 °F 3.2 °F 53% 30.45 in 10.0 mi East 9.2 mph - N/A   Clear
10:51 AM 17.6 °F 7.3 °F 3.2 °F 53% 30.46 in 10.0 mi East 8.1 mph - N/A   Clear
11:11 AM 19.4 °F 8.6 °F 3.2 °F 49% 30.45 in 10.0 mi ESE 9.2 mph - N/A   Clear
11:31 AM 19.4 °F 10.4 °F 3.2 °F 49% 30.45 in 10.0 mi ESE 6.9 mph - N/A   Clear
11:51 AM 21.2 °F 14.9 °F 3.2 °F 46% 30.45 in 10.0 mi SE 4.6 mph - N/A   Clear
12:11 PM 21.2 °F 13.6 °F 5.0 °F 50% 30.45 in 10.0 mi ESE 5.8 mph - N/A   Clear
12:31 PM 23.0 °F 14.7 °F 5.0 °F 46% 30.44 in 10.0 mi ESE 6.9 mph - N/A   Clear
12:51 PM 24.8 °F 19.1 °F 6.8 °F 46% 30.44 in 10.0 mi East 4.6 mph - N/A   Clear
1:11 PM 24.8 °F 16.1 °F 6.8 °F 46% 30.42 in 10.0 mi East 8.1 mph - N/A   Clear
1:31 PM 26.6 °F 22.6 °F 8.6 °F 47% 30.42 in 10.0 mi East 3.5 mph - N/A   Clear
1:51 PM 26.6 °F 21.2 °F 8.6 °F 47% 30.42 in 10.0 mi ESE 4.6 mph - N/A   Clear
2:11 PM 24.8 °F 16.1 °F 8.6 °F 50% 30.42 in 10.0 mi SSE 8.1 mph - N/A   Clear
2:31 PM 24.8 °F 16.9 °F 6.8 °F 46% 30.41 in 10.0 mi SE 6.9 mph - N/A   Clear
2:51 PM 24.8 °F 16.1 °F 8.6 °F 50% 30.40 in 10.0 mi ESE 8.1 mph - N/A   Clear
3:11 PM 24.8 °F 16.9 °F 8.6 °F 50% 30.40 in 10.0 mi SE 6.9 mph - N/A   Clear
3:31 PM 24.8 °F 16.1 °F 8.6 °F 50% 30.39 in 10.0 mi SE 8.1 mph - N/A   Clear
3:51 PM 24.8 °F 19.1 °F 8.6 °F 50% 30.39 in 10.0 mi ESE 4.6 mph - N/A   Clear
4:12 PM 24.8 °F 19.1 °F 8.6 °F 50% 30.39 in 10.0 mi SE 4.6 mph - N/A   Clear
4:31 PM 24.8 °F 17.9 °F 8.6 °F 50% 30.38 in 10.0 mi SE 5.8 mph - N/A   Clear
4:51 PM 23.0 °F 15.8 °F 6.8 °F 50% 30.38 in 10.0 mi SE 5.8 mph - N/A   Clear
5:11 PM 23.0 °F 17.0 °F 5.0 °F 46% 30.37 in 10.0 mi SSE 4.6 mph - N/A   Clear
5:31 PM 21.2 °F 13.6 °F 5.0 °F 50% 30.37 in 10.0 mi SSE 5.8 mph - N/A   Clear
5:51 PM 19.4 °F 12.8 °F 5.0 °F 54% 30.37 in 10.0 mi South 4.6 mph - N/A   Clear
6:11 PM 19.4 °F - 5.0 °F 54% 30.38 in 10.0 mi Calm Calm - N/A   Clear
6:31 PM 17.6 °F 10.7 °F 5.0 °F 58% 30.38 in 10.0 mi SSE 4.6 mph - N/A   Clear
6:51 PM 17.6 °F 9.3 °F 3.2 °F 53% 30.37 in 10.0 mi SE 5.8 mph - N/A   Clear
7:11 PM 17.6 °F 8.2 °F 3.2 °F 53% 30.37 in 10.0 mi SE 6.9 mph - N/A   Clear
7:31 PM 17.6 °F 9.3 °F 3.2 °F 53% 30.36 in 10.0 mi SSE 5.8 mph - N/A   Clear
7:51 PM 17.6 °F 9.3 °F 3.2 °F 53% 30.34 in 10.0 mi SE 5.8 mph - N/A   Clear
8:11 PM 17.6 °F 9.3 °F 3.2 °F 53% 30.33 in 10.0 mi SE 5.8 mph - N/A   Clear
8:31 PM 14.0 °F 6.5 °F 1.4 °F 57% 30.34 in 10.0 mi SSE 4.6 mph - N/A   Clear
8:51 PM 14.0 °F 8.2 °F 1.4 °F 57% 30.34 in 10.0 mi SE 3.5 mph - N/A   Clear
9:11 PM 14.0 °F 8.2 °F 1.4 °F 57% 30.34 in 10.0 mi SSE 3.5 mph - N/A   Clear
9:31 PM 14.0 °F 8.2 °F 1.4 °F 57% 30.34 in 10.0 mi SSE 3.5 mph - N/A   Clear
9:51 PM 14.0 °F 6.5 °F 1.4 °F 57% 30.34 in 10.0 mi SE 4.6 mph - N/A   Clear
10:11 PM 14.0 °F 8.2 °F 1.4 °F 57% 30.34 in 10.0 mi SSE 3.5 mph - N/A   Clear
10:31 PM 12.2 °F 4.3 °F 1.4 °F 62% 30.33 in 10.0 mi SSE 4.6 mph - N/A   Clear
10:51 PM 12.2 °F 2.9 °F 1.4 °F 62% 30.31 in 10.0 mi SE 5.8 mph - N/A   Clear
11:11 PM 12.2 °F 1.7 °F 1.4 °F 62% 30.31 in 10.0 mi SSE 6.9 mph - N/A   Clear
11:31 PM 12.2 °F 4.3 °F 1.4 °F 62% 30.32 in 10.0 mi South 4.6 mph - N/A   Clear
11:51 PM 12.2 °F 6.1 °F 1.4 °F 62% 30.32 in 10.0 mi SSE 3.5 mph - N/A   Clear